Vertical_Velocity
1 1 1 1 0 -0 -1 -1 0 -0 -1 -1 -0 0 1 -0 -3 -4 -4 -2 -2 -3 -4 -4 -3 -2 -2 -2 -3 -3 -4 -4 -4 -5 -5 -5 -5 -4 -4 -3 -2 -2 -2 -2 -3 -3 -3 -2 1 2 0 -1 -0 -1 -2 -3 -2 -1 -0 1 2 3 3 0 -4 -4 -3 -1 -1
1 1 2 1 1 0 -0 -0 0 1 0 -0 -0 1 1 0 -2 -4 -4 -2 -2 -3 -4 -3 -1 1 1 1 -0 -3 -5 -6 -6 -6 -5 -4 -4 -3 -3 -3 -2 -2 -1 -1 -1 -0 2 5 4 1 -2 -3 -3 -3 -3 -2 -1 -0 1 4 5 4 2 -2 -4 -4 -4 -3 -3
1 1 1 1 1 0 -1 -1 -1 -1 -0 -1 -0 1 2 1 -1 -2 -2 -1 -1 -2 -3 -3 -0 1 3 3 3 1 -2 -4 -5 -5 -4 -3 -2 -2 -2 -3 -2 -1 -1 -0 3 7 9 6 0 -2 -2 -0 -1 -1 -1 1 -1 -0 4 10 7 3 -1 -3 -3 -3 -3 -2 0
1 -0 -1 -1 -1 -1 -1 -2 -3 -3 -2 -2 -1 1 2 3 1 -0 -1 1 2 0 -2 -3 -1 0 2 3 6 7 5 2 2 1 0 -0 -0 -1 -1 -2 -1 -1 -0 2 6 7 5 -0 -2 -1 1 1 0 1 1 -1 -2 3 10 13 5 0 -2 -3 -3 -1 2 3 5
-2 -2 -2 -2 -2 -2 -2 -3 -3 -3 -2 -1 -1 0 1 2 1 1 1 2 4 3 0 -1 -1 -0 0 -0 5 7 8 7 7 7 6 4 4 3 1 0 -0 -0 0 1 1 0 -1 -0 2 2 2 1 2 1 -1 -5 -2 8 15 11 3 -1 -3 -2 1 5 6 4 4
-4 -3 -2 -2 -2 -3 -2 -2 -2 -1 -1 -0 0 0 0 1 1 1 2 2 4 3 2 -0 0 0 -1 -4 -1 1 2 3 5 6 7 7 9 8 4 1 -0 -1 -1 -1 -1 -0 1 3 3 2 1 2 -0 -3 -4 -0 3 10 15 14 4 1 1 2 -2 -0 3 4 3
-2 -2 -2 -2 -2 -2 -1 -1 -0 0 1 1 1 1 0 0 2 3 3 2 2 1 1 -1 0 0 -1 -4 -4 -4 -3 -2 2 3 4 6 7 7 5 2 -0 -1 0 1 2 3 3 2 1 1 1 1 -4 -5 -2 5 10 15 17 11 6 1 -3 -10 -8 -4 1 4 2
-1 -0 -0 -0 -1 -1 -0 1 1 1 1 1 1 0 -0 1 4 5 4 1 -0 -1 -1 -2 -1 -0 -1 -3 -4 -4 -4 -3 0 2 3 4 5 6 6 4 0 0 2 4 5 4 2 0 1 1 -0 -5 -3 0 2 3 13 19 19 6 -2 -5 -8 -13 -6 -1 1 2 1
-2 -1 -0 -0 -0 0 0 1 1 0 0 0 0 0 1 2 5 6 4 0 -1 -2 -2 -2 -1 -1 -1 -2 -3 -3 -1 0 2 4 3 -2 0 3 5 3 2 2 2 3 1 0 -0 1 0 -5 -8 -4 4 6 6 9 18 21 16 3 -3 -5 -4 -3 -2 -1 -0 1 0
-2 -1 -1 -1 -0 0 1 1 1 0 0 0 1 1 2 3 5 5 4 1 -1 -2 -2 -2 -1 -1 -2 -3 -4 -2 -0 2 5 5 3 -6 -5 -1 1 -2 -2 -2 -0 1 1 1 0 -4 -12 -12 -7 4 8 10 14 19 22 22 17 7 1 -0 -0 1 1 2 2 2 1
-0 0 1 0 1 1 1 0 0 0 1 1 1 2 2 1 1 2 2 0 -1 -1 -1 -1 -1 -2 -3 -4 -4 -2 0 3 5 2 -3 -6 -2 1 2 1 2 2 3 2 1 -2 -7 -13 -12 -4 4 10 13 16 19 19 19 16 12 6 4 3 2 3 2 2 2 3 3
0 1 2 2 2 2 1 -0 -0 -0 0 1 1 1 0 -1 -2 -0 1 0 -1 -0 0 0 -1 -2 -2 -3 -2 -1 0 2 1 -4 -6 -1 4 6 6 5 5 3 -0 -3 -5 -9 -10 -7 2 7 11 15 17 18 16 12 10 7 5 5 4 3 2 1 1 1 2 5 3
1 1 1 2 2 1 0 -0 -0 0 0 1 0 -0 -1 -2 -1 -1 -0 0 -0 0 0 -0 -1 -2 -2 -1 -0 -0 -0 -0 -5 -5 -2 6 7 6 4 2 -0 -3 -5 -8 -7 -5 -1 7 12 15 17 18 16 13 9 5 4 2 2 3 1 0 -1 -1 1 2 2 2 1
0 0 1 1 2 1 -0 -0 0 1 1 -0 -1 -1 -1 -1 -0 -0 -1 -1 -0 0 0 -1 -2 -2 -1 -1 -0 1 1 -1 -5 -2 3 8 6 3 0 -3 -5 -7 -7 -6 -1 5 11 18 17 15 11 6 6 6 6 2 2 1 1 0 -1 -3 -4 -2 -0 1 1 -0 -1
-1 -0 -0 0 1 0 -0 -0 1 1 1 -0 -0 -1 -1 -2 -0 -1 -2 -3 -2 -1 -0 -1 -2 -2 -1 1 3 4 3 -1 -3 -0 3 4 2 -0 -3 -5 -7 -7 -5 0 6 10 12 13 4 -1 -1 1 3 3 3 1 0 -0 -1 -3 -4 -4 -4 -2 1 1 1 1 -0
-1 -1 -1 -1 -0 -0 -0 -0 0 0 0 0 1 0 -1 -2 -1 -2 -4 -4 -3 -2 -1 -1 -0 1 3 6 7 5 1 -5 -3 0 2 2 -0 -2 -3 -2 -1 1 3 8 11 5 -2 -6 -5 -1 3 5 3 2 1 -0 -0 -1 -2 -3 -1 0 2 3 4 3 3 2 1
-2 -1 -1 -1 -0 -0 -0 -0 -0 -0 0 1 1 1 -0 -1 -2 -3 -4 -4 -3 -3 -2 -0 3 6 7 7 4 -1 -5 -6 -1 4 6 6 5 4 4 7 11 13 13 12 8 4 2 3 5 6 5 4 2 1 -0 -1 -1 -2 -2 -1 2 3 3 3 2 2 1 1 1
-2 -1 -0 -0 -0 -0 0 -0 -0 -0 0 1 1 1 1 1 -0 -1 -2 -2 -2 -2 -1 2 5 6 4 1 -2 -4 -3 0 5 8 10 10 12 13 14 16 15 12 8 5 6 7 8 7 7 5 4 2 1 1 1 0 -0 -1 -0 0 1 1 1 -0 -0 0 0 0 0
-1 -0 0 0 0 0 0 -0 -0 -0 0 1 1 1 1 1 1 0 -1 -1 -1 0 1 2 1 -0 -2 -2 -1 1 4 8 9 8 7 8 10 12 12 11 5 1 -1 -1 2 6 7 5 5 3 1 1 1 1 1 1 1 0 0 1 1 0 -0 -1 -0 -0 0 1 0
-1 -0 1 1 1 1 -0 -1 -0 0 1 1 1 0 0 0 0 -0 -0 -0 1 2 1 -1 -2 -3 -2 0 3 5 8 9 6 3 2 2 1 0 -1 -3 -5 -4 -3 -1 2 4 5 4 3 2 1 1 1 1 1 1 1 1 1 1 1 1 0 0 1 0 0 0 1
-1 0 1 2 2 1 0 -0 0 0 1 0 -0 -0 -0 -0 -0 -0 1 2 3 2 -0 -2 -3 -2 -0 2 4 5 6 5 2 1 -0 -1 -3 -5 -6 -6 -4 -2 -0 2 4 4 4 3 2 2 2 2 1 1 1 1 1 1 1 1 1 1 2 2 2 1 1 1 2
-0 1 1 2 2 2 1 1 1 1 1 1 0 -0 -1 -1 -0 1 2 4 3 1 -1 -1 -1 -1 0 2 2 3 2 2 1 0 -1 -2 -2 -2 -2 -1 -0 1 2 5 5 4 3 2 2 2 2 2 1 1 1 1 1 1 1 1 1 2 3 3 3 3 3 4 4
-0 0 1 2 2 2 1 1 0 0 -0 0 1 0 -0 -0 1 2 3 3 2 0 -0 -0 0 1 1 2 2 2 2 1 1 0 -0 -0 0 1 1 1 1 2 3 5 5 5 4 2 2 1 1 1 1 1 1 1 1 1 1 0 0 1 2 3 4 4 4 4 5
-0 -0 0 1 1 1 1 1 -0 -1 -1 -1 1 1 1 1 2 3 3 3 2 1 0 1 2 2 3 3 3 3 2 2 1 1 2 2 2 2 2 2 1 1 2 3 3 3 3 2 1 1 1 1 1 1 1 1 1 1 0 0 -0 -0 0 1 2 2 2 2 2
-1 -0 0 1 1 1 1 -0 -2 -2 -2 -0 1 1 1 2 2 2 3 3 2 2 2 2 2 2 3 3 3 3 2 2 2 2 3 3 3 3 2 1 0 -0 -0 1 2 2 1 1 1 2 2 2 2 1 1 1 1 1 1 1 1 1 1 1 1 1 1 1 -0
-1 -1 -0 0 1 1 0 -1 -1 -1 -1 -0 -0 -0 -0 1 1 1 1 0 1 2 2 1 1 2 2 2 2 1 1 1 2 2 2 2 2 1 -0 -1 -2 -2 -1 1 2 2 2 2 2 2 2 1 1 1 0 -0 1 1 2 2 3 3 2 2 2 2 2 1 -0
-2 -1 -0 1 1 1 0 0 0 -0 -1 -1 -2 -2 -1 0 0 -0 -1 -1 0 1 1 -0 -0 1 1 1 -0 -1 -1 -0 0 0 0 0 -1 -2 -3 -3 -3 -2 0 2 3 2 2 2 2 2 1 1 1 0 0 1 2 3 3 3 3 3 2 1 1 1 1 1 1
-1 -1 -0 0 0 1 1 2 1 -0 -1 -2 -2 -1 0 0 -0 -1 -2 -1 0 -0 -1 -2 -0 1 1 -1 -1 -1 -1 -1 -2 -1 -1 -1 -2 -2 -3 -2 -2 0 2 3 3 2 1 1 0 1 1 1 1 1 2 3 4 4 4 3 3 3 2 1 1 1 1 1 1
-1 -0 -0 -1 -0 1 1 0 -0 -1 -1 -0 0 1 1 0 -1 -1 -1 -1 -2 -3 -3 -2 1 1 -0 -2 -1 -1 -2 -3 -2 -2 -1 -1 -2 -2 -2 -1 -0 1 3 3 2 2 1 1 2 2 2 3 2 3 3 4 3 3 2 2 2 2 2 2 3 3 3 3 2
0 -0 -0 -1 -0 -0 -1 -1 -1 -0 0 1 2 2 1 -1 -2 -2 -2 -3 -4 -3 -1 1 1 -0 -1 -1 -1 -1 -2 -2 -1 -1 -1 -1 -1 -1 -1 -0 -0 1 2 2 2 2 2 3 4 5 5 5 4 3 2 2 2 1 0 1 2 2 3 3 3 3 3 3 3
1 1 0 -0 -1 -1 -1 -1 -0 1 1 2 2 1 -1 -3 -3 -3 -2 -2 -1 1 2 2 0 -1 -1 -1 -2 -2 -2 -2 -2 -2 -2 -2 -2 -1 0 0 -0 1 2 2 2 2 3 4 5 6 6 6 4 2 2 2 1 0 -0 0 1 1 2 2 1 1 1 2 2
2 1 1 -0 -1 -1 -0 -0 0 1 1 1 0 -1 -3 -4 -3 -2 -0 1 2 2 2 0 -2 -2 -3 -3 -3 -3 -2 -2 -3 -2 -2 -2 -2 -1 -0 -0 0 1 3 3 3 3 3 4 5 5 5 4 3 2 2 1 0 -0 -0 -0 -0 -0 0 -0 -0 0 1 1 1
2 2 1 -0 -0 0 1 1 1 1 1 -0 -2 -3 -3 -3 -2 -1 -0 0 0 -0 -1 -2 -3 -4 -4 -3 -3 -3 -3 -3 -2 -2 -2 -2 -1 -1 -1 -1 -0 2 4 4 4 4 4 4 4 5 5 4 3 2 2 1 0 -0 -1 -1 -1 -1 -1 -1 -0 0 0 1 1
2 2 1 0 1 1 1 2 2 1 0 -1 -2 -2 -2 -2 -2 -3 -2 -1 -1 -2 -2 -3 -3 -3 -2 -1 -2 -2 -2 -1 -1 -1 -1 -0 -0 -1 -2 -3 -0 3 4 4 4 4 4 4 4 4 4 3 2 1 1 1 0 -0 -1 -1 -1 -1 -1 -0 -0 -0 0 1 1
2 1 1 1 1 2 2 2 2 1 -0 -2 -2 -1 -2 -2 -3 -3 -2 -0 -1 -2 -2 -2 -1 -1 -1 -0 -1 -1 -1 -1 -0 -0 0 1 0 -1 -3 -3 -0 2 3 3 3 3 3 3 3 3 3 2 1 1 1 1 -0 -1 -1 -1 -1 -1 -1 -1 -0 0 1 1 1
2 1 1 1 2 2 2 2 2 0 -1 -2 -1 -1 -1 -2 -2 -1 0 2 0 -1 -2 -1 -0 -1 -1 -1 -1 -1 -1 0 0 1 1 2 1 -0 -2 -2 -0 1 2 2 2 2 2 2 2 2 2 1 1 1 1 -0 -0 -0 -0 -1 -2 -2 -2 -2 -1 -0 1 1 1
1 1 1 1 1 1 1 2 0 -1 -2 -2 -1 -1 -1 -1 -1 0 2 2 0 -1 -1 -1 -1 -2 -2 -2 -2 -1 -0 1 0 0 0 1 0 -1 -1 -2 -1 -0 1 2 2 1 1 2 2 2 2 1 0 -0 -0 -1 -0 -0 -1 -2 -2 -2 -2 -2 -1 -0 0 1 1
1 1 1 1 0 1 1 0 -1 -2 -2 -2 -1 -0 -0 -1 -1 0 1 1 -0 -1 -1 -2 -3 -3 -2 -1 -1 -1 -0 -0 -0 -1 -1 -1 -1 -1 -1 -3 -2 -1 1 2 2 2 2 1 2 2 2 1 0 -0 -0 -0 -0 -1 -2 -2 -3 -3 -3 -3 -2 -1 -0 1 1
1 1 1 0 0 0 0 -1 -2 -2 -1 -1 -0 -0 -1 -1 -1 -0 1 1 0 -0 -1 -3 -3 -2 -1 1 -0 -1 -1 -1 -1 -2 -3 -3 -1 -0 -1 -3 -2 -1 1 2 2 2 1 1 2 2 3 1 1 0 0 -0 -0 -1 -2 -3 -3 -3 -2 -2 -1 -1 -1 0 1
1 0 0 -0 -0 -0 -1 -2 -2 -1 -0 0 -0 -1 -1 -2 -1 0 1 1 1 -0 -1 -3 -2 -1 1 1 -0 -1 -2 -2 -2 -2 -3 -2 -0 -0 -1 -3 -2 -0 1 1 1 1 1 1 2 3 3 1 1 1 1 1 -0 -1 -2 -2 -2 -2 -1 0 0 -0 -1 -0 -0
0 -0 -0 -1 -1 -1 -1 -1 -1 -0 0 -1 -1 -1 -1 -0 0 1 1 1 0 -0 -1 -2 -1 0 1 1 0 -1 -2 -3 -3 -2 -2 -1 -0 -1 -1 -2 -1 -1 -0 0 0 1 1 1 2 2 2 1 1 1 1 1 -0 -1 -1 -0 -0 -0 0 1 0 -0 -0 -1 -1
Height
1444 1443 1442 1440 1439 1437 1436 1434 1433 1432 1430 1429 1427 1426 1424 1423 1422 1420 1419 1417 1416 1414 1413 1411 1410 1408 1407 1406 1405 1404 1403 1402 1401 1400 1399 1399 1398 1398 1397 1397 1396 1395 1395 1394 1394 1394 1394 1394 1394 1394 1393 1393 1393 1392 1392 1393 1393 1394 1395 1395 1396 1396 1397 1397 1398 1399 1400 1401 1401
1444 1443 1441 1440 1438 1437 1435 1434 1433 1431 1430 1429 1427 1425 1424 1423 1421 1420 1418 1417 1416 1414 1413 1411 1409 1408 1407 1405 1404 1403 1402 1401 1400 1399 1399 1398 1397 1397 1396 1395 1395 1394 1394 1394 1394 1394 1393 1393 1393 1393 1392 1392 1391 1391 1391 1392 1393 1393 1394 1394 1395 1396 1396 1397 1398 1398 1399 1400 1400
1444 1442 1441 1439 1438 1436 1435 1433 1432 1430 1429 1428 1426 1425 1423 1422 1421 1419 1418 1416 1415 1414 1412 1411 1409 1408 1406 1405 1404 1403 1402 1401 1400 1399 1398 1397 1396 1395 1395 1394 1394 1394 1393 1393 1393 1392 1392 1392 1392 1391 1391 1390 1390 1390 1390 1391 1391 1392 1392 1393 1394 1395 1396 1397 1397 1398 1399 1400 1400
1444 1442 1441 1439 1438 1436 1434 1433 1431 1429 1428 1427 1425 1424 1423 1421 1420 1419 1417 1416 1415 1414 1412 1410 1409 1408 1407 1405 1404 1403 1402 1401 1400 1399 1398 1397 1396 1395 1394 1394 1393 1393 1393 1392 1392 1392 1391 1391 1391 1390 1390 1389 1389 1389 1390 1390 1390 1390 1391 1392 1394 1395 1396 1397 1398 1398 1399 1399 1400
1444 1443 1441 1439 1438 1436 1434 1433 1431 1429 1428 1426 1424 1423 1422 1420 1419 1418 1417 1415 1414 1414 1412 1410 1409 1408 1406 1405 1404 1403 1401 1400 1399 1399 1398 1397 1396 1395 1394 1394 1393 1393 1392 1392 1391 1391 1391 1390 1390 1389 1389 1389 1389 1389 1389 1389 1389 1389 1390 1392 1394 1395 1396 1397 1398 1398 1399 1399 1400
1444 1443 1441 1439 1437 1435 1434 1432 1430 1429 1427 1425 1424 1422 1421 1419 1418 1417 1416 1415 1414 1413 1412 1410 1409 1408 1407 1406 1404 1403 1401 1400 1399 1398 1398 1397 1396 1395 1394 1394 1393 1392 1392 1391 1391 1391 1390 1390 1389 1389 1388 1388 1388 1389 1389 1389 1389 1389 1391 1393 1394 1395 1396 1397 1397 1398 1399 1399 1400
1444 1443 1441 1439 1437 1435 1433 1432 1430 1428 1427 1425 1424 1422 1420 1419 1417 1416 1415 1414 1413 1412 1411 1410 1409 1408 1407 1406 1405 1404 1402 1401 1399 1399 1398 1396 1395 1395 1394 1393 1393 1392 1392 1392 1391 1391 1390 1390 1389 1388 1388 1388 1389 1389 1389 1389 1389 1390 1391 1393 1394 1396 1396 1398 1399 1399 1399 1399 1399
1445 1443 1441 1439 1437 1435 1434 1432 1430 1428 1427 1425 1423 1422 1420 1418 1417 1415 1414 1413 1412 1412 1411 1410 1409 1408 1407 1406 1405 1404 1402 1401 1400 1399 1398 1397 1396 1395 1394 1393 1393 1393 1392 1392 1391 1391 1390 1389 1389 1388 1388 1389 1389 1389 1389 1389 1389 1390 1391 1393 1394 1396 1397 1399 1399 1399 1399 1399 1399
1445 1443 1441 1439 1437 1435 1434 1432 1430 1428 1427 1425 1423 1422 1420 1418 1417 1415 1414 1413 1412 1411 1410 1409 1409 1408 1407 1406 1405 1404 1403 1402 1400 1399 1398 1397 1396 1395 1394 1394 1394 1393 1393 1392 1392 1391 1390 1389 1389 1389 1389 1389 1389 1389 1389 1390 1391 1390 1391 1393 1394 1396 1398 1399 1399 1399 1399 1399 1399
1445 1443 1441 1439 1437 1436 1434 1432 1430 1428 1426 1425 1423 1422 1420 1419 1417 1415 1414 1413 1411 1411 1410 1409 1409 1408 1407 1407 1405 1404 1403 1402 1401 1399 1399 1397 1397 1396 1395 1394 1394 1394 1393 1392 1392 1391 1391 1390 1390 1389 1389 1389 1389 1390 1391 1392 1392 1391 1392 1394 1396 1397 1398 1398 1399 1399 1399 1399 1399
1445 1444 1442 1440 1438 1436 1434 1432 1430 1428 1426 1425 1423 1422 1420 1419 1417 1416 1414 1413 1412 1411 1410 1410 1409 1409 1408 1407 1406 1405 1404 1403 1401 1400 1399 1398 1397 1396 1396 1395 1394 1394 1393 1393 1392 1392 1391 1391 1390 1390 1390 1390 1390 1391 1392 1393 1393 1393 1394 1395 1396 1397 1398 1398 1399 1399 1399 1399 1399
1445 1444 1442 1440 1438 1436 1434 1432 1430 1428 1427 1425 1424 1422 1421 1419 1418 1416 1415 1414 1412 1411 1411 1410 1410 1409 1408 1407 1406 1406 1404 1403 1402 1401 1400 1399 1398 1397 1396 1396 1395 1394 1394 1393 1393 1392 1391 1391 1391 1391 1392 1392 1393 1393 1393 1394 1394 1395 1396 1397 1397 1397 1398 1398 1399 1399 1399 1399 1399
1446 1444 1443 1441 1439 1437 1435 1433 1431 1429 1428 1426 1424 1423 1421 1420 1418 1417 1415 1414 1414 1413 1412 1411 1411 1410 1409 1408 1407 1406 1405 1404 1403 1402 1401 1399 1399 1398 1398 1397 1396 1395 1394 1393 1393 1392 1392 1392 1393 1393 1394 1394 1394 1394 1394 1395 1396 1396 1397 1397 1397 1398 1398 1399 1399 1399 1399 1399 1399
1446 1445 1443 1441 1439 1438 1436 1434 1432 1430 1429 1427 1425 1424 1422 1421 1419 1418 1417 1416 1415 1414 1413 1413 1412 1410 1409 1409 1408 1407 1406 1405 1404 1403 1401 1401 1400 1399 1399 1397 1396 1395 1394 1394 1393 1393 1394 1394 1395 1395 1395 1395 1395 1395 1395 1396 1397 1397 1398 1398 1398 1398 1399 1399 1399 1399 1399 1399 1399
1447 1445 1444 1442 1440 1438 1436 1435 1433 1432 1430 1428 1427 1425 1424 1422 1420 1419 1418 1417 1416 1415 1414 1414 1413 1411 1410 1409 1409 1408 1407 1406 1405 1404 1403 1402 1402 1401 1399 1398 1397 1396 1396 1395 1395 1395 1396 1397 1396 1396 1396 1396 1396 1396 1397 1398 1398 1398 1398 1398 1399 1399 1399 1399 1399 1399 1399 1399 1399
1447 1446 1444 1443 1441 1439 1438 1436 1434 1433 1431 1429 1428 1426 1425 1424 1422 1421 1420 1419 1418 1417 1416 1414 1414 1412 1411 1411 1410 1409 1409 1408 1407 1405 1404 1404 1402 1401 1400 1399 1399 1398 1397 1397 1398 1398 1398 1397 1397 1397 1398 1398 1398 1399 1399 1399 1399 1399 1399 1399 1399 1400 1400 1400 1399 1399 1399 1399 1399
1448 1446 1445 1443 1442 1440 1439 1437 1435 1434 1432 1431 1429 1428 1426 1425 1424 1423 1421 1420 1419 1418 1417 1416 1415 1414 1413 1412 1412 1411 1410 1409 1408 1406 1405 1404 1403 1402 1401 1401 1400 1400 1400 1400 1400 1400 1399 1399 1399 1399 1399 1400 1400 1400 1400 1400 1400 1400 1400 1400 1400 1400 1400 1400 1400 1399 1399 1399 1399
1449 1447 1446 1444 1443 1441 1439 1438 1437 1435 1434 1432 1431 1429 1428 1427 1425 1424 1423 1421 1420 1419 1418 1417 1417 1416 1415 1414 1414 1413 1411 1410 1409 1408 1407 1406 1405 1404 1404 1403 1403 1403 1402 1402 1402 1402 1401 1401 1401 1401 1402 1401 1401 1401 1401 1401 1400 1400 1401 1401 1401 1401 1400 1400 1400 1400 1400 1400 1400
1449 1448 1447 1445 1444 1442 1441 1439 1438 1436 1435 1434 1432 1431 1429 1428 1427 1425 1424 1423 1422 1421 1420 1419 1419 1418 1417 1416 1415 1414 1413 1411 1411 1410 1409 1408 1408 1407 1406 1405 1405 1404 1404 1404 1404 1403 1403 1403 1403 1403 1403 1403 1402 1402 1402 1401 1401 1401 1401 1401 1401 1401 1401 1401 1401 1401 1401 1401 1401
1450 1449 1448 1446 1445 1444 1442 1441 1439 1438 1436 1435 1434 1432 1431 1429 1428 1427 1425 1424 1424 1423 1422 1421 1420 1419 1419 1417 1416 1415 1414 1413 1413 1412 1411 1410 1409 1409 1408 1408 1407 1406 1406 1405 1405 1405 1405 1405 1405 1404 1404 1404 1403 1403 1403 1402 1402 1402 1402 1402 1402 1402 1402 1402 1402 1402 1402 1402 1402
1452 1450 1449 1448 1446 1445 1443 1442 1441 1439 1438 1436 1435 1434 1432 1431 1429 1428 1427 1426 1426 1425 1424 1423 1422 1421 1420 1419 1418 1417 1416 1415 1414 1414 1413 1412 1411 1411 1410 1410 1409 1408 1408 1407 1407 1407 1406 1406 1406 1406 1405 1404 1404 1404 1403 1403 1403 1403 1402 1402 1402 1402 1403 1403 1403 1403 1403 1403 1404
1453 1451 1450 1449 1447 1446 1444 1443 1442 1440 1439 1438 1436 1435 1434 1432 1431 1430 1429 1428 1427 1426 1425 1424 1423 1422 1421 1420 1419 1419 1418 1417 1416 1415 1414 1414 1413 1413 1412 1412 1411 1410 1409 1409 1409 1408 1408 1408 1407 1407 1406 1405 1405 1404 1404 1404 1404 1403 1404 1404 1404 1404 1404 1404 1404 1404 1404 1405 1405
1454 1453 1451 1449 1448 1447 1445 1444 1443 1442 1440 1439 1438 1436 1435 1434 1433 1432 1431 1430 1429 1428 1426 1425 1424 1424 1423 1422 1421 1420 1419 1418 1417 1416 1416 1415 1414 1414 1414 1413 1412 1412 1411 1411 1410 1410 1409 1409 1408 1408 1407 1406 1406 1405 1405 1405 1405 1405 1405 1405 1405 1405 1405 1405 1406 1406 1406 1407 1407
1455 1454 1452 1450 1449 1448 1447 1445 1444 1443 1441 1440 1439 1438 1437 1436 1435 1434 1433 1432 1431 1429 1428 1427 1426 1425 1424 1423 1422 1421 1420 1419 1419 1418 1417 1417 1416 1415 1415 1414 1414 1413 1413 1413 1412 1412 1411 1410 1409 1408 1408 1407 1407 1406 1406 1406 1406 1406 1407 1407 1407 1407 1407 1407 1407 1408 1408 1409 1409
1456 1455 1453 1452 1450 1449 1448 1446 1445 1444 1443 1442 1441 1440 1439 1438 1437 1436 1435 1434 1433 1431 1430 1429 1428 1427 1426 1425 1424 1423 1422 1421 1420 1419 1419 1418 1418 1417 1416 1416 1415 1414 1414 1414 1414 1413 1412 1411 1410 1410 1409 1409 1408 1408 1408 1408 1408 1408 1409 1409 1409 1409 1409 1409 1409 1409 1410 1410 1410
1458 1456 1454 1453 1451 1450 1449 1447 1446 1445 1444 1444 1442 1441 1440 1439 1438 1437 1436 1435 1434 1433 1432 1431 1430 1429 1428 1427 1425 1424 1423 1422 1422 1421 1420 1420 1419 1418 1418 1417 1416 1416 1416 1416 1415 1414 1414 1413 1412 1412 1411 1411 1411 1410 1410 1410 1410 1411 1411 1411 1411 1411 1411 1412 1412 1412 1412 1412 1412
1459 1457 1456 1454 1453 1451 1450 1449 1448 1447 1446 1445 1444 1443 1442 1441 1440 1439 1438 1436 1435 1434 1434 1432 1431 1430 1429 1428 1427 1426 1425 1424 1423 1423 1422 1421 1420 1420 1419 1418 1418 1418 1418 1418 1417 1416 1416 1416 1415 1415 1414 1414 1413 1413 1413 1413 1413 1413 1413 1414 1414 1414 1414 1414 1414 1414 1414 1414 1414
1460 1459 1457 1456 1454 1453 1451 1450 1449 1448 1447 1446 1445 1444 1444 1442 1441 1440 1439 1438 1437 1436 1434 1434 1433 1432 1430 1429 1428 1428 1427 1426 1425 1424 1424 1423 1422 1421 1420 1420 1420 1420 1420 1420 1419 1419 1419 1419 1418 1418 1417 1417 1416 1416 1415 1416 1416 1416 1416 1416 1416 1416 1416 1416 1416 1416 1416 1416 1416
1461 1460 1459 1457 1456 1454 1453 1452 1450 1449 1449 1448 1447 1446 1445 1444 1443 1442 1441 1439 1438 1437 1436 1435 1434 1433 1432 1431 1430 1430 1429 1428 1427 1427 1426 1424 1424 1423 1422 1422 1422 1422 1423 1422 1422 1421 1421 1421 1420 1420 1420 1419 1419 1419 1419 1419 1419 1419 1418 1418 1418 1418 1418 1418 1418 1418 1418 1418 1418
1463 1461 1460 1459 1457 1456 1454 1454 1452 1451 1450 1449 1449 1448 1447 1446 1444 1444 1442 1441 1440 1439 1439 1438 1437 1435 1434 1434 1433 1432 1431 1430 1429 1429 1427 1426 1425 1425 1425 1424 1425 1425 1425 1424 1424 1424 1423 1423 1423 1423 1423 1422 1422 1421 1421 1421 1421 1420 1420 1420 1420 1420 1420 1420 1420 1420 1420 1420 1420
1464 1463 1462 1460 1459 1458 1457 1456 1455 1454 1453 1452 1451 1449 1449 1447 1446 1445 1444 1444 1443 1442 1441 1440 1439 1438 1437 1436 1435 1434 1434 1433 1432 1431 1430 1429 1428 1428 1427 1427 1427 1427 1427 1427 1427 1426 1426 1426 1426 1425 1425 1424 1424 1423 1423 1423 1422 1422 1422 1422 1422 1421 1421 1421 1421 1421 1421 1421 1421
1466 1465 1464 1462 1461 1460 1459 1458 1457 1456 1455 1454 1453 1452 1450 1449 1449 1448 1447 1446 1446 1445 1444 1443 1442 1441 1440 1439 1438 1437 1436 1435 1434 1433 1433 1432 1431 1430 1430 1429 1429 1429 1430 1429 1429 1429 1429 1428 1428 1428 1427 1426 1426 1425 1425 1424 1424 1424 1423 1423 1423 1423 1423 1423 1423 1423 1423 1423 1423
1468 1467 1466 1464 1464 1463 1462 1461 1460 1459 1458 1456 1455 1454 1453 1452 1451 1450 1450 1449 1448 1448 1446 1445 1444 1443 1442 1441 1440 1439 1438 1438 1437 1436 1435 1435 1434 1433 1432 1432 1432 1432 1432 1432 1432 1431 1431 1430 1430 1429 1429 1428 1427 1427 1426 1426 1425 1425 1425 1425 1425 1425 1425 1425 1425 1425 1425 1425 1425
1470 1469 1468 1467 1466 1465 1464 1463 1462 1461 1460 1459 1457 1456 1455 1455 1454 1453 1452 1452 1451 1450 1449 1448 1446 1445 1444 1443 1442 1442 1441 1440 1439 1439 1438 1438 1437 1436 1435 1434 1435 1435 1435 1435 1434 1434 1433 1433 1432 1431 1430 1430 1429 1429 1428 1428 1427 1427 1427 1427 1427 1427 1427 1427 1427 1427 1427 1427 1427
1472 1471 1470 1469 1468 1467 1466 1465 1464 1463 1462 1460 1459 1459 1458 1457 1456 1455 1454 1454 1453 1452 1451 1449 1449 1448 1446 1445 1445 1444 1443 1443 1442 1441 1441 1440 1439 1439 1438 1438 1438 1438 1438 1437 1437 1436 1435 1434 1434 1433 1432 1432 1431 1430 1430 1429 1429 1429 1429 1429 1429 1429 1429 1429 1429 1429 1430 1430 1430
1474 1473 1472 1471 1470 1469 1468 1467 1466 1465 1464 1462 1461 1460 1459 1459 1458 1457 1457 1456 1455 1454 1452 1451 1450 1449 1449 1448 1447 1446 1445 1445 1444 1444 1444 1443 1442 1441 1441 1441 1441 1441 1440 1440 1439 1439 1438 1437 1436 1435 1434 1434 1433 1432 1432 1431 1431 1431 1431 1430 1430 1431 1431 1431 1431 1432 1432 1432 1432
1476 1475 1474 1473 1472 1471 1470 1469 1468 1467 1465 1464 1463 1462 1462 1461 1460 1459 1459 1458 1457 1455 1454 1454 1452 1451 1450 1450 1449 1449 1448 1448 1447 1446 1446 1445 1444 1444 1443 1443 1443 1443 1443 1442 1442 1441 1440 1439 1439 1438 1437 1436 1435 1434 1434 1434 1434 1433 1433 1433 1433 1433 1433 1433 1433 1434 1434 1434 1434
1478 1477 1476 1475 1474 1473 1472 1471 1469 1468 1467 1466 1465 1464 1464 1463 1462 1461 1460 1459 1458 1457 1456 1455 1454 1454 1453 1453 1452 1451 1451 1450 1449 1449 1448 1447 1447 1446 1446 1445 1445 1445 1445 1445 1444 1444 1443 1442 1441 1440 1439 1439 1438 1437 1437 1436 1436 1435 1435 1435 1435 1435 1435 1435 1435 1435 1435 1436 1436
1480 1479 1478 1477 1476 1475 1474 1473 1471 1470 1469 1468 1467 1466 1465 1464 1464 1463 1462 1461 1460 1459 1459 1458 1457 1456 1456 1455 1454 1454 1453 1452 1452 1451 1450 1449 1449 1449 1448 1448 1448 1448 1448 1447 1447 1446 1445 1444 1444 1443 1442 1441 1440 1440 1439 1439 1438 1438 1438 1438 1438 1438 1438 1438 1438 1437 1437 1438 1438
1482 1481 1480 1479 1478 1476 1475 1474 1473 1472 1471 1470 1469 1468 1467 1466 1466 1465 1464 1464 1463 1462 1461 1460 1459 1459 1458 1458 1457 1456 1455 1454 1454 1453 1453 1452 1452 1452 1451 1450 1450 1450 1450 1449 1449 1448 1447 1447 1446 1446 1445 1444 1443 1443 1442 1442 1441 1440 1440 1440 1440 1440 1440 1440 1440 1440 1439 1439 1440
1484 1483 1481 1480 1479 1478 1477 1476 1475 1474 1473 1472 1471 1470 1469 1469 1468 1467 1466 1465 1464 1464 1463 1462 1462 1461 1461 1460 1459 1458 1457 1457 1456 1455 1455 1455 1454 1454 1453 1453 1452 1452 1452 1451 1451 1450 1450 1449 1449 1448 1448 1447 1446 1445 1445 1444 1444 1443 1443 1443 1443 1443 1443 1443 1442 1442 1442 1442 1442